Time,TemperatureF,DewpointF,PressureIn,WindDirection,WindDirectionDegrees,WindSpeedMPH,WindSpeedGustMPH,Humidity,HourlyPrecipIn,Conditions,Clouds,dailyrainin,SoftwareType,DateUTC
2013-08-23 00:43:00,75.0,-99.9,29.91,North,-999,-999.0,5.0,-999,0.00,,,-99.99,,2013-08-23 04:43:00,
2013-08-23 00:53:00,75.0,-99.9,29.91,North,-999,3.0,6.0,-999,-99.99,,,-99.99,,2013-08-23 04:53:00,
2013-08-23 01:42:00,75.0,-99.9,29.91,North,-999,3.0,6.0,-999,-99.99,,,-99.99,,2013-08-23 05:42:00,
2013-08-23 02:42:00,74.0,-99.9,29.90,NNE,27,-999.0,-999.0,-999,0.00,,,-99.99,,2013-08-23 06:42:00,
2013-08-23 02:52:00,74.0,-99.9,29.90,NNE,27,-999.0,-999.0,-999,0.00,,,-99.99,,2013-08-23 06:52:00,
2013-08-23 04:42:00,70.0,-99.9,29.90,North,1,-999.0,5.0,-999,0.00,,,-99.99,,2013-08-23 08:42:00,
2013-08-23 04:52:00,70.0,-99.9,29.90,North,1,-999.0,5.0,-999,0.00,,,-99.99,,2013-08-23 08:52:00,
2013-08-23 04:53:00,69.0,-99.9,29.90,NNE,33,3.0,6.0,-999,0.00,,,-99.99,,2013-08-23 08:53:00,
2013-08-23 05:43:00,69.0,-99.9,29.90,NNE,33,3.0,6.0,-999,0.00,,,-99.99,,2013-08-23 09:43:00,
2013-08-23 05:53:00,69.0,-99.9,29.91,NE,39,2.0,4.0,-999,0.00,,,-99.99,,2013-08-23 09:53:00,
2013-08-23 06:42:00,69.0,-99.9,29.91,NE,39,2.0,4.0,-999,0.00,,,-99.99,,2013-08-23 10:42:00,
2013-08-23 06:53:00,68.0,-99.9,29.93,East,79,3.0,8.0,-999,0.00,,,-99.99,,2013-08-23 10:53:00,
2013-08-23 07:42:00,68.0,-99.9,29.93,East,79,3.0,8.0,-999,0.00,,,-99.99,,2013-08-23 11:42:00,
2013-08-23 08:42:00,71.0,-99.9,29.94,East,99,-999.0,9.0,-999,0.00,,,-99.99,,2013-08-23 12:42:00,
2013-08-23 08:52:00,71.0,-99.9,29.94,East,99,-999.0,9.0,-999,0.00,,,-99.99,,2013-08-23 12:52:00,
2013-08-23 08:53:00,73.0,-99.9,29.96,ENE,63,7.0,9.0,-999,0.00,,,-99.99,,2013-08-23 12:53:00,
2013-08-23 09:42:00,73.0,-99.9,29.96,ENE,63,7.0,9.0,-999,0.00,,,-99.99,,2013-08-23 13:42:00,
2013-08-23 10:42:00,75.0,-99.9,29.97,South,170,2.0,10.0,-999,0.00,,,-99.99,,2013-08-23 14:42:00,
2013-08-23 10:52:00,75.0,-99.9,29.97,South,170,2.0,10.0,-999,0.00,,,-99.99,,2013-08-23 14:52:00,
2013-08-23 10:53:00,77.0,-99.9,29.96,SW,220,-999.0,11.0,-999,0.00,,,-99.99,,2013-08-23 14:53:00,
2013-08-23 11:44:00,77.0,-99.9,29.96,SW,220,-999.0,11.0,-999,0.00,,,-99.99,,2013-08-23 15:44:00,
2013-08-23 11:53:00,80.0,-99.9,29.98,SSE,160,9.0,10.0,-999,0.00,,,-99.99,,2013-08-23 15:53:00,
2013-08-23 12:42:00,80.0,-99.9,29.98,SSE,160,9.0,10.0,-999,0.00,,,-99.99,,2013-08-23 16:42:00,
2013-08-23 12:53:00,78.0,-99.9,29.98,East,84,4.0,7.0,-999,0.00,,,-99.99,,2013-08-23 16:53:00,
2013-08-23 13:43:00,78.0,-99.9,29.98,East,84,4.0,7.0,-999,0.00,,,-99.99,,2013-08-23 17:43:00,
2013-08-23 14:42:00,78.0,-99.9,29.99,North,-999,8.0,8.0,-999,0.00,,,-99.99,,2013-08-23 18:42:00,
2013-08-23 14:52:00,78.0,-99.9,29.99,North,-999,8.0,8.0,-999,0.00,,,-99.99,,2013-08-23 18:52:00,
2013-08-23 15:43:00,78.0,-99.9,29.98,ENE,77,5.0,9.0,-999,0.00,,,-99.99,,2013-08-23 19:43:00,
2013-08-23 15:52:00,78.0,-99.9,29.98,ENE,77,5.0,9.0,-999,0.00,,,-99.99,,2013-08-23 19:52:00,
2013-08-23 16:42:00,78.0,-99.9,29.98,North,-999,2.0,10.0,-999,0.00,,,-99.99,,2013-08-23 20:42:00,
2013-08-23 16:52:00,78.0,-99.9,29.98,North,-999,2.0,10.0,-999,0.00,,,-99.99,,2013-08-23 20:52:00,
2013-08-23 17:53:00,75.0,-99.9,29.98,ESE,102,3.0,7.0,-999,0.00,,,-99.99,,2013-08-23 21:53:00,
2013-08-23 18:43:00,75.0,-99.9,29.98,ESE,102,3.0,7.0,-999,0.00,,,-99.99,,2013-08-23 22:43:00,
2013-08-23 18:53:00,73.0,-99.9,30.00,North,-999,2.0,9.0,-999,0.00,,,-99.99,,2013-08-23 22:53:00,
2013-08-23 19:43:00,73.0,-99.9,30.00,North,-999,2.0,9.0,-999,0.00,,,-99.99,,2013-08-23 23:43:00,
2013-08-23 20:53:00,69.0,-99.9,30.03,North,-999,-999.0,-999.0,-999,0.00,,,-99.99,,2013-08-24 00:53:00,
2013-08-23 21:42:00,69.0,-99.9,30.03,North,-999,-999.0,-999.0,-999,0.00,,,-99.99,,2013-08-24 01:42:00,
2013-08-23 23:53:00,68.0,-99.9,30.07,North,-999,-999.0,-999.0,-999,0.00,,,-99.99,,2013-08-24 03:53:00,